Content
SEND FEEDBACK

Daily
Averages
Monthly
Summary
United States of America

FAIRPLAY, COLORADO


Home > North America > United States > Colorado
Elevation: 10010 feet     Latitude: 39 14N     Longitude: 106 00W

WEATHER
 
SELECT A DAY
Number of Records: 189,951;   Date Range: 1/4/95 - 8/12/14
 
SHARE

PRINT THIS DATA

[ ← Previous Day ]
WEATHER ALMANAC - FEBRUARY 13, 2013
[ Next Day → ]
[ °C ]   °F
Weather ElementAverageHighLow
Temperature11 °F21.2 °F (2:21 pm) (11:00 am)
Dewpoint4.6 °F10.9 °F (4:53 pm)-2.2 °F (7:10 am)
Humidity75.5 %88 % (2:53 am)58 % (11:13 am)
Barometer29.25 in30.24 in (7:53 am) (7:00 pm)
Wind Speed9.2 mph21.9 mph (11:13 am)
Wind Gust31.1 mph (11:53 am)
Weather ElementAverage
Visibility9.6 mi
Wind DirectionSSE (161.1 °)

Weather ElementTotal
Precipitation---
Heating Degree Days54.4 (Base 65)
Averaged from 35 records on February 13, 2013
WEATHER CONDITIONS BREAKOUT
WIND DIRECTION BREAKOUT
WEATHER BY HOUR - FEBRUARY 13, 2013
[ °C ]   °F
Local TimeTemperatureDewpointHumidityBarometerVisibilityWind DirectionWind SpeedGust SpeedPrecipitationEventsConditions
1:53 AM6.1 °F1.9 °F83 %30.12 in9.0 miNE (50°)3.5 mphOvercast
2:29 AM3.2 °F-0.4 °F85 %30.05 in10.0 miNorth (10°)4.6 mphOvercast
2:51 AM3.2 °F-0.4 °F85 %30.05 in10.0 miNE (50°)4.6 mphOvercast
2:53 AM1.9 °F-0.9 °F88 %30.13 in10.0 miENE (60°)4.6 mphOvercast
3:07 AM3.2 °F-0.4 °F85 %30.05 in10.0 miNNE (20°)6.9 mphOvercast
3:53 AM5.0 °F0.0 °F80 %30.11 in10.0 miNorth (350°)11.5 mphOvercast
4:10 AM5.0 °F1.4 °F85 %30.05 in10.0 miNorth (350°)10.4 mphOvercast
4:53 AM3.0 °F-0.9 °F84 %30.15 in10.0 miEast (80°)4.6 mphOvercast
5:53 AM1.9 °F-0.9 °F88 %30.19 in10.0 miNNE (30°)6.9 mphOvercast
6:53 AM1.9 °F-2.0 °F83 %30.21 in10.0 miNE (50°)5.8 mphOvercast
7:10 AM1.4 °F-2.2 °F85 %30.04 in10.0 miNE (50°)5.8 mphScattered Clouds
7:53 AM5.0 °F1.0 °F84 %30.24 in10.0 miNorth (10°)9.2 mphPartly Cloudy
8:53 AM12.9 °F3.9 °F67 %30.19 in10.0 miNNW (340°)8.1 mphClear
9:53 AM16.0 °F5.0 °F62 %30.16 in10.0 miNW (320°)9.2 mphClear
10:53 AM18.0 °F6.1 °F60 %30.13 in10.0 miNW (310°)12.7 mph25.3 mphMostly Cloudy
11:00 AM0.0 °F0.0 °FNorth
11:13 AM19.4 °F6.8 °F58 %30.04 in10.0 miWNW (300°)21.9 mph28.8 mphScattered Clouds
11:53 AM18.0 °F8.1 °F65 %30.12 in10.0 miWNW (300°)21.9 mph31.1 mph0.00 inClear
12:32 PM19.4 °F8.6 °F63 %30.02 in10.0 miNW (310°)18.4 mph28.8 mphMostly Cloudy
12:53 PM19.0 °F9.0 °F65 %30.10 in10.0 miWNW (300°)17.3 mph27.6 mphMostly Cloudy
1:53 PM21.0 °F10.0 °F63 %30.04 in10.0 miNW (320°)13.8 mph19.6 mph0.00 inOvercast
2:21 PM21.2 °F10.4 °F63 %30.01 in7.0 miNNW (330°)13.8 mph23.0 mph0.00 inSnowLight Snow
2:53 PM19.0 °F10.0 °F68 %30.09 in7.0 miNW (310°)15.0 mph25.3 mph0.00 inSnowLight Snow
3:53 PM19.9 °F10.0 °F65 %30.07 in7.0 miNW (320°)16.1 mph28.8 mph0.00 inSnowLight Snow
4:53 PM19.9 °F10.9 °F68 %30.09 in9.0 miNW (310°)17.3 mph27.6 mph0.00 inOvercast
5:53 PM18.0 °F10.0 °F71 %30.13 in8.0 miNW (310°)15.0 mph0.00 inSnowLight Snow
6:38 PM15.8 °F8.6 °F73 %30.06 in9.0 miESE (120°)4.6 mph0.00 inScattered Clouds
6:53 PM15.1 °F9.0 °F77 %30.17 in10.0 miESE (120°)4.6 mph0.00 inPartly Cloudy
7:53 PM12.0 °F6.1 °F77 %30.19 in10.0 miENE (60°)3.5 mphOvercast
8:53 PM12.9 °F7.0 °F77 %30.13 in10.0 miVariable4.6 mphOvercast
9:40 PM10.4 °F6.8 °F85 %30.07 in10.0 miNE (40°)4.6 mphOvercast
9:53 PM10.0 °F6.1 °F84 %30.13 in10.0 miNE (40°)4.6 mphOvercast
10:51 PM6.8 °F3.2 °F85 %30.07 in10.0 miCalmPartly Cloudy
10:53 PM8.1 °F3.0 °F80 %30.13 in10.0 miENE (70°)3.5 mphPartly Cloudy
11:53 PM10.9 °F5.0 °F77 %30.10 in10.0 miVariable3.5 mphPartly Cloudy
Hourly data recorded from KLXV, located miles away from Fairplay, Colorado







STORIES FROM OUR PARTNERS